Regional Weather Roundup
Issued by NWS

Current Version | Previous Version | Text Only | Print | Product List | Glossary On
Versions: 1 2 3 4 5 6 7 8 9 10 11 12 13 14 15 16 17 18 19 20 21 22 23 24 25 26 27 28 29 30 31 32 33 34 35 36 37 38 39 40 41 42 43 44 45 46 47 48 49 50
000
ASUS44 KOUN 010610
RWROK

WEATHER ROUNDUP FOR OKLAHOMA
NATIONAL WEATHER SERVICE NORMAN OK
1200 AM CST MON MAR 01 2021

NOTE: "FAIR" INDICATES FEW OR NO CLOUDS BELOW 12,000 FEET WITH NO
      SIGNIFICANT WEATHER AND/OR OBSTRUCTIONS TO VISIBILITY.

OKZ001>007-009>012-014-015-017-010700-
NORTHWEST OKLAHOMA AND THE PANHANDLE

CITY           SKY/WX    TMP DP  RH WIND       PRES   REMARKS
GAGE           MOCLDY    30  19  63 N6        30.23R WCI  24
6HR MIN TEMP:  28; 6HR MAX TEMP:  50;

GUYMON         CLEAR     28  13  53 N3        30.21R
ENID/WOODRING    N/A     34  30  86 N9        30.21R WCI  26
$$

OKZ016-021>023-033>039-044-045-010700-
SOUTHWEST OKLAHOMA

CITY           SKY/WX    TMP DP  RH WIND       PRES   REMARKS
LAWTON/REGL    PTCLDY    45  28  51 N17       30.14R
6HR MIN TEMP:  45; 6HR MAX TEMP:  56;

LAWTON/FT SILL MOCLDY    43  29  58 N15       30.13R
FREDERICK      PTCLDY    44  27  51 N16       30.12S
CLINTON        PTCLDY    37  23  56 N12       30.20R WCI  29
HOBART         MOCLDY    42  26  53 MISG      30.18R
ALTUS AFB      MOCLDY    43  18  36 N17G23    30.17R WCI  35
$$

OKZ018>020-024>031-010700-
CENTRAL OKLAHOMA

CITY           SKY/WX    TMP DP  RH WIND       PRES   REMARKS
OKLAHOMA CITY  MOCLDY    41  29  62 N15       30.16R WCI  33
6HR MIN TEMP:  41; 6HR MAX TEMP:  54;

OKC/WILEY POST CLEAR     40  29  64 N14       30.17R WCI  32
OKC/TINKER AFB CLEAR     42  29  59 N13       30.15R
STILLWATER     CLEAR     39  30  70 N10       30.18F WCI  32
GUTHRIE        CLEAR     40  30  67 N6        30.19R
$$

OKZ008-013-054>072-010700-
NORTHEAST OKLAHOMA

CITY           SKY/WX    TMP DP  RH WIND       PRES   REMARKS
TULSA          CLEAR     43  31  62 N12G22    30.17S
6HR MIN TEMP:  42; 6HR MAX TEMP:  55;

TULSA/JONES    CLEAR     43  31  62 N9        30.16F
PONCA CITY     CLEAR     37  28  70 N12       30.20F WCI  29
BARTLESVILLE   CLEAR     39  30  70 N9        30.21S WCI  33
MUSKOGEE       MOCLDY    44  32  62 N12       30.16R
$$

OKZ032-040>043-046>053-073>077-010700-
SOUTH CENTRAL/SOUTHEAST OKLAHOMA

CITY           SKY/WX    TMP DP  RH WIND       PRES   REMARKS
ARDMORE/DWNTWN PTCLDY    49  31  50 N13G20    30.08R
MCALESTER      PTCLDY    49  31  49 N16G26    30.10S
$$




USA.gov is the U.S. government's official web portal to all federal, state and local government web resources and services.